Location: *
(58.4167°N, 22.5000°E)
Time: 11:43:57
(UTC+00:00)

Cosmos 1733 - Pass Details

Date: 22 September 2019
Orbit: 507 x 522 km, 82.5° (Epoch: 14 October)

Event Time Altitude Azimuth Distance (km) Brightness Sun altitude
Exits shadow 18:04:12 21° 113° (ESE) 1,189 4.4 -12.8°
Maximum altitude 18:05:12 24° 88° (E) 1,107 4.3 -12.9°
Drops below altitude 10° 18:08:19 10° 34° (NE) 1,753 5.8 -13.3°
Sets 18:10:44 0° 21° (NNE) 2,649 6.8 -13.6°
